When you browse on this site, cookies collect data to enhance your experience and personalize the content and advertising you see.
Visit our Privacy Policy to learn more. By continuing to use the site, you agree to this use of cookies and data.
  • In Portugal
  • List of Countries
  • For 7 days
  • Water Temperature
  • Weather Map
  • Weather Widgets
  • user-avatar
    Login

    Hourly Weather Belmopan

    Today, 12 December, Thursday

    Time Temperature Precipitation Wind Pressure Humidity
    00:00 +21°C° 0 mm 0 mps 756 mmHg 99%
    01:00 +21°C° 0.3 mm 0 mps 755 mmHg 99%
    02:00 +21°C° 0.3 mm 0 mps 755 mmHg 99%
    03:00 +21°C° 0.3 mm 0 mps 755 mmHg 99%
    04:00 +21°C° 0 mm 0 mps 755 mmHg 99%
    05:00 +22°C° 0 mm 0 mps 755 mmHg 99%
    06:00 +22°C° 0 mm 0 mps 755 mmHg 98%
    07:00 +23°C° 0.3 mm 0 mps 755 mmHg 96%
    08:00 +24°C° 0.3 mm 0 mps 756 mmHg 94%
    09:00 +24°C° 0.3 mm 0 mps 756 mmHg 91%
    10:00 +25°C° 0.8 mm 0 mps 756 mmHg 90%
    11:00 +27°C° 0.8 mm 1 mps 756 mmHg 89%
    12:00 +28°C° 0.8 mm 1 mps 755 mmHg 88%
    13:00 +28°C° 0.8 mm 1 mps 754 mmHg 88%
    14:00 +28°C° 0.8 mm 1 mps 754 mmHg 88%
    15:00 +27°C° 0.8 mm 1 mps 753 mmHg 87%
    16:00 +24°C° 0.2 mm 0 mps 753 mmHg 91%
    17:00 +23°C° 0.2 mm 0 mps 754 mmHg 94%
    18:00 +22°C° 0.2 mm 0 mps 754 mmHg 97%
    19:00 +22°C° 0 mm 0 mps 754 mmHg 98%
    20:00 +21°C° 0 mm 0 mps 754 mmHg 98%
    21:00 +21°C° 0 mm 0 mps 755 mmHg 98%
    22:00 +21°C° 0 mm 0 mps 754 mmHg 98%
    23:00 +21°C° 0 mm 0 mps 754 mmHg 98%

    Tomorrow, 13 December, Friday

    Time Temperature Precipitation Wind Pressure Humidity
    00:00 +20°C° 0 mm 0 mps 754 mmHg 98%
    01:00 +20°C° 0 mm 0 mps 754 mmHg 99%
    02:00 +20°C° 0 mm 0 mps 753 mmHg 99%
    03:00 +20°C° 0 mm 0 mps 753 mmHg 99%
    04:00 +20°C° 0 mm 0 mps 753 mmHg 99%
    05:00 +20°C° 0 mm 0 mps 753 mmHg 99%
    06:00 +20°C° 0 mm 0 mps 753 mmHg 99%
    07:00 +23°C° 0 mm 1 mps 753 mmHg 95%
    08:00 +25°C° 0 mm 1 mps 754 mmHg 91%
    09:00 +26°C° 0 mm 1 mps 754 mmHg 86%
    10:00 +28°C° 0 mm 1 mps 754 mmHg 75%
    11:00 +30°C° 0 mm 1 mps 753 mmHg 63%
    12:00 +32°C° 0 mm 1 mps 753 mmHg 52%
    13:00 +32°C° 0 mm 1 mps 752 mmHg 52%
    14:00 +32°C° 0 mm 1 mps 751 mmHg 52%
    15:00 +32°C° 0 mm 1 mps 750 mmHg 51%
    16:00 +30°C° 0 mm 1 mps 751 mmHg 62%
    17:00 +27°C° 0 mm 1 mps 751 mmHg 73%
    18:00 +25°C° 0 mm 1 mps 751 mmHg 85%
    19:00 +25°C° 0 mm 1 mps 752 mmHg 88%
    20:00 +22°C° 0 mm 0 mps 752 mmHg 92%
    21:00 +21°C° 0 mm 0 mps 753 mmHg 96%
    22:00 +21°C° 0 mm 0 mps 752 mmHg 96%
    23:00 +21°C° 0 mm 0 mps 752 mmHg 96%

    Day after tomorrow, 14 December, Saturday

    Time Temperature Precipitation Wind Pressure Humidity
    00:00 +21°C° 0 mm 0 mps 752 mmHg 96%
    01:00 +21°C° 0 mm 0 mps 752 mmHg 96%
    02:00 +20°C° 0 mm 0 mps 752 mmHg 96%
    03:00 +20°C° 0 mm 0 mps 751 mmHg 96%
    04:00 +20°C° 0 mm 0 mps 752 mmHg 96%
    05:00 +20°C° 0 mm 0 mps 752 mmHg 96%
    06:00 +20°C° 0 mm 0 mps 752 mmHg 96%
    07:00 +22°C° 0 mm 0 mps 753 mmHg 86%
    08:00 +24°C° 0 mm 0 mps 753 mmHg 77%
    09:00 +26°C° 0 mm 0 mps 754 mmHg 68%
    10:00 +30°C° 0.1 mm 1 mps 753 mmHg 64%
    11:00 +31°C° 0.1 mm 1 mps 753 mmHg 60%
    12:00 +32°C° 0.1 mm 1 mps 752 mmHg 56%
    13:00 +30°C° 0.8 mm 1 mps 752 mmHg 66%
    14:00 +29°C° 0.8 mm 1 mps 751 mmHg 76%
    15:00 +28°C° 0.8 mm 2 mps 751 mmHg 86%
    16:00 +27°C° 0.3 mm 1 mps 751 mmHg 89%
    17:00 +25°C° 0.3 mm 1 mps 751 mmHg 93%
    18:00 +24°C° 0.3 mm 1 mps 751 mmHg 96%
    19:00 +24°C° 0 mm 1 mps 752 mmHg 97%
    20:00 +23°C° 0 mm 1 mps 752 mmHg 97%
    21:00 +23°C° 0 mm 1 mps 753 mmHg 98%
    22:00 +21°C° 0 mm 0 mps 752 mmHg 98%
    23:00 +21°C° 0 mm 0 mps 752 mmHg 98%

    15 December, Sunday

    Time Temperature Precipitation Wind Pressure Humidity
    00:00 +21°C° 0 mm 0 mps 752 mmHg 98%
    01:00 +20°C° 0 mm 0 mps 752 mmHg 98%
    02:00 +20°C° 0 mm 0 mps 752 mmHg 98%
    03:00 +20°C° 0 mm 0 mps 752 mmHg 98%
    04:00 +20°C° 0 mm 0 mps 752 mmHg 98%
    05:00 +20°C° 0 mm 0 mps 752 mmHg 98%
    06:00 +20°C° 0 mm 0 mps 753 mmHg 98%
    07:00 +23°C° 0 mm 1 mps 753 mmHg 91%
    08:00 +25°C° 0 mm 1 mps 754 mmHg 84%
    09:00 +27°C° 0 mm 1 mps 754 mmHg 78%
    10:00 +28°C° 0 mm 2 mps 754 mmHg 71%
    11:00 +30°C° 0 mm 2 mps 753 mmHg 64%
    12:00 +31°C° 0 mm 2 mps 753 mmHg 57%
    13:00 +31°C° 0 mm 2 mps 752 mmHg 57%
    14:00 +30°C° 0 mm 3 mps 752 mmHg 58%
    15:00 +30°C° 0 mm 3 mps 751 mmHg 58%
    16:00 +28°C° 0 mm 2 mps 751 mmHg 68%
    17:00 +26°C° 0 mm 2 mps 751 mmHg 77%
    18:00 +24°C° 0 mm 1 mps 751 mmHg 87%
    19:00 +24°C° 0 mm 1 mps 752 mmHg 90%
    20:00 +23°C° 0 mm 1 mps 752 mmHg 94%
    21:00 +22°C° 0 mm 1 mps 753 mmHg 97%
    22:00 +22°C° 0 mm 1 mps 753 mmHg 98%
    23:00 +22°C° 0 mm 1 mps 752 mmHg 98%

    16 December, Monday

    Time Temperature Precipitation Wind Pressure Humidity
    00:00 +20°C° 0 mm 0 mps 752 mmHg 98%
    01:00 +20°C° 0 mm 0 mps 752 mmHg 98%
    02:00 +20°C° 0 mm 0 mps 752 mmHg 98%
    03:00 +20°C° 0 mm 0 mps 751 mmHg 98%
    04:00 +20°C° 0 mm 0 mps 752 mmHg 98%
    05:00 +20°C° 0 mm 0 mps 752 mmHg 98%
    06:00 +20°C° 0 mm 0 mps 752 mmHg 99%
    07:00 +22°C° 0 mm 0 mps 752 mmHg 92%
    08:00 +26°C° 0 mm 1 mps 753 mmHg 85%
    09:00 +28°C° 0 mm 2 mps 753 mmHg 78%
    10:00 +30°C° 0.1 mm 2 mps 753 mmHg 72%
    11:00 +31°C° 0.1 mm 2 mps 752 mmHg 66%
    12:00 +33°C° 0.1 mm 3 mps 752 mmHg 60%
    13:00 +33°C° 0 mm 3 mps 751 mmHg 60%
    14:00 +33°C° 0 mm 3 mps 750 mmHg 61%
    15:00 +31°C° 0 mm 3 mps 750 mmHg 62%
    16:00 +29°C° 0 mm 2 mps 750 mmHg 72%
    17:00 +28°C° 0 mm 2 mps 750 mmHg 81%
    18:00 +26°C° 0 mm 1 mps 750 mmHg 91%
    19:00 +25°C° 0 mm 1 mps 751 mmHg 94%
    20:00 +25°C° 0 mm 1 mps 751 mmHg 96%
    21:00 +24°C° 0 mm 1 mps 752 mmHg 98%
    22:00 +24°C° 0 mm 1 mps 751 mmHg 98%
    23:00 +24°C° 0 mm 1 mps 751 mmHg 98%

    17 December, Tuesday

    Time Temperature Precipitation Wind Pressure Humidity
    00:00 +24°C° 0 mm 1 mps 751 mmHg 99%
    01:00 +22°C° 0 mm 0 mps 751 mmHg 99%
    02:00 +22°C° 0 mm 0 mps 750 mmHg 99%
    03:00 +22°C° 0 mm 0 mps 750 mmHg 99%
    04:00 +22°C° 0 mm 0 mps 750 mmHg 99%
    05:00 +22°C° 0 mm 0 mps 750 mmHg 99%
    06:00 +22°C° 0 mm 0 mps 750 mmHg 99%
    07:00 +26°C° 0 mm 1 mps 751 mmHg 92%
    08:00 +27°C° 0 mm 1 mps 751 mmHg 86%
    09:00 +29°C° 0 mm 1 mps 752 mmHg 80%
    10:00 +30°C° 0.2 mm 1 mps 751 mmHg 75%
    11:00 +31°C° 0.2 mm 2 mps 751 mmHg 70%
    12:00 +32°C° 0.2 mm 2 mps 751 mmHg 66%
    13:00 +32°C° 0.6 mm 2 mps 750 mmHg 69%
    14:00 +31°C° 0.6 mm 2 mps 750 mmHg 71%
    15:00 +31°C° 0.6 mm 2 mps 749 mmHg 74%
    16:00 +29°C° 0.3 mm 1 mps 750 mmHg 81%
    17:00 +28°C° 0.3 mm 1 mps 750 mmHg 87%
    18:00 +26°C° 0.3 mm 1 mps 750 mmHg 94%
    19:00 +26°C° 0 mm 1 mps 751 mmHg 95%
    20:00 +25°C° 0 mm 1 mps 751 mmHg 97%
    21:00 +25°C° 0 mm 1 mps 752 mmHg 98%
    22:00 +23°C° 0.4 mm 0 mps 752 mmHg 98%
    23:00 +23°C° 0.4 mm 0 mps 752 mmHg 99%
    Show more